Wautoma, WI

8:19 PM CDT on August 20, 2017 (GMT -0500)
Wautoma

Weather History for KY50 - November, 2013

Change the Weather History Date:

Thursday, November 28, 2013

  Actual Average (KPCZ) Record (KPCZ)
Temperature  
Mean Temperature 18 °F -  
Max Temperature 26 °F 35 °F 60 °F (1960)
Min Temperature 9 °F 19 °F -4 °F (1955)
Degree Days  
Heating Degree Days 48    
Moisture  
Dew Point -    
Average Humidity    
Maximum Humidity    
Minimum Humidity    
Precipitation  
Precipitation 0.00 in - - ()
Sea Level Pressure  
Sea Level Pressure 30.27 in    
Wind  
Wind Speed 4 mph (WNW)    
Max Wind Speed 13 mph    
Max Gust Speed 17 mph    
Visibility 10 miles    
Events      
Averages and records for this station are not official NWS values.
T = Trace of Precipitation, MM = Missing Value Source: NWS Daily Summary

Daily Weather History Graph

Daily Weather History Graph

Search for Another Location

Airport or City:

Trip Planner

Search our weather history database for the weather conditions in past years. The results will help you decide how hot, cold, wet, or windy it might be!

Date:

Astronomy

Nov. 28, 2013 Rise Set
Actual Time 7:08 AM CST 4:21 PM CST
Civil Twilight 6:36 AM CST 4:53 PM CST
Nautical Twilight 6:00 AM CST 5:29 PM CST
Astronomical Twilight 5:26 AM CST 6:04 PM CST
Moon 2:02 AM CST (11/28) 1:39 PM CST (11/28)
Length of Visible Light 10h 17m
Length of Day
9h 12m
Waning Crescent, 22% of the Moon is Illuminated
Nov 28
Waning Crescent
Dec 2
New
Dec 9
First Quarter
Dec 17
Full
Dec 25
Last Quarter

Hourly Weather History & Observations

Time (CST) Temp. Windchill Dew Point Humidity Pressure Visibility Wind Dir Wind Speed Gust Speed Precip Events Conditions
12:56 AM 21.0 °F 14.6 °F - N/A% 30.20 in 10.0 mi ESE 4.6 mph - 0.00 in   Mostly Cloudy
1:21 AM 21.2 °F 13.6 °F - N/A% 30.15 in 10.0 mi ESE 5.8 mph - N/A   Mostly Cloudy
1:36 AM 21.2 °F 12.6 °F - N/A% 30.15 in 8.0 mi ESE 6.9 mph - 0.00 in   Overcast
1:56 AM 21.0 °F 14.6 °F - N/A% 30.19 in 10.0 mi SE 4.6 mph - 0.00 in   Overcast
2:19 AM 21.2 °F 16.4 °F - N/A% 30.15 in 10.0 mi ESE 3.5 mph - 0.00 in   Mostly Cloudy
2:56 AM 21.0 °F 14.6 °F - N/A% 30.17 in 10.0 mi SSE 4.6 mph - 0.00 in   Overcast
3:04 AM 21.2 °F - - N/A% 30.14 in 10.0 mi Calm Calm - N/A   Overcast
3:56 AM 21.0 °F 13.4 °F - N/A% 30.17 in 10.0 mi South 5.8 mph - N/A   Overcast
4:08 AM 21.2 °F 14.9 °F - N/A% 30.13 in 10.0 mi SSE 4.6 mph - N/A   Overcast
4:17 AM 21.2 °F 16.4 °F - N/A% 30.13 in 10.0 mi SE 3.5 mph - N/A   Overcast
4:40 AM 21.2 °F 14.9 °F - N/A% 30.13 in 10.0 mi SSE 4.6 mph - N/A   Overcast
4:56 AM 22.1 °F 15.9 °F - N/A% 30.17 in 10.0 mi SSE 4.6 mph - N/A   Overcast
5:16 AM 21.2 °F 14.9 °F - N/A% 30.13 in 10.0 mi SSE 4.6 mph - N/A   Overcast
5:56 AM 21.0 °F - - N/A% 30.18 in 10.0 mi Calm Calm - N/A   Overcast
6:39 AM 21.2 °F - - N/A% 30.15 in 10.0 mi Calm Calm - N/A   Overcast
6:48 AM 21.2 °F - - N/A% 30.15 in 10.0 mi Calm Calm - N/A   Overcast
6:56 AM 21.0 °F - - N/A% 30.19 in 10.0 mi Calm Calm - N/A   Overcast
7:31 AM 21.2 °F - - N/A% 30.16 in 10.0 mi Calm Calm - 0.00 in   Overcast
7:56 AM 21.0 °F - - N/A% 30.20 in 10.0 mi Calm Calm - 0.00 in   Overcast
8:56 AM 21.2 °F 16.4 °F - N/A% 30.18 in 10.0 mi SSW 3.5 mph - N/A   Overcast
9:16 AM 21.2 °F 14.9 °F - N/A% 30.18 in 10.0 mi South 4.6 mph - 0.00 in   Overcast
9:25 AM 21.2 °F 16.4 °F - N/A% 30.19 in 10.0 mi SW 3.5 mph - 0.00 in   Overcast
9:56 AM 22.1 °F 15.9 °F - N/A% 30.23 in 10.0 mi West 4.6 mph - 0.00 in   Overcast
10:56 AM 23.0 °F 14.7 °F - N/A% 30.23 in 10.0 mi NW 6.9 mph - 0.00 in   Mostly Cloudy
11:46 AM 26.6 °F 18.2 °F - N/A% 30.19 in 10.0 mi WNW 8.1 mph - N/A   Scattered Clouds
11:48 AM 26.6 °F 19.1 °F - N/A% 30.19 in 10.0 mi Variable 6.9 mph - N/A   Mostly Cloudy
11:56 AM 26.6 °F 16.8 °F - N/A% 30.19 in 10.0 mi NNW 10.4 mph 16.1 mph N/A   Mostly Cloudy
12:17 PM 26.6 °F 16.2 °F - N/A% 30.20 in 10.0 mi NNW 11.5 mph - N/A   Mostly Cloudy
12:56 PM 26.1 °F 15.6 °F - N/A% 30.25 in 10.0 mi North 11.5 mph - N/A   Scattered Clouds
1:56 PM 26.1 °F 17.6 °F - N/A% 30.27 in 10.0 mi North 8.1 mph - N/A   Mostly Cloudy
2:56 PM 24.8 °F 15.3 °F - N/A% 30.28 in 10.0 mi NNW 9.2 mph - N/A   Mostly Cloudy
3:03 PM 26.6 °F 17.5 °F - N/A% 30.28 in 10.0 mi NNW 9.2 mph - N/A   Mostly Cloudy
3:25 PM 26.6 °F 15.7 °F - N/A% 30.29 in 10.0 mi NNW 12.7 mph 17.3 mph N/A   Overcast
3:56 PM 25.2 °F 15.1 °F - N/A% 30.34 in 10.0 mi North 10.4 mph - N/A   Overcast
4:56 PM 24.1 °F 15.2 °F - N/A% 30.38 in 10.0 mi NNW 8.1 mph - N/A   Overcast
5:56 PM 21.0 °F 16.2 °F - N/A% 30.42 in 10.0 mi NW 3.5 mph - N/A   Mostly Cloudy
6:23 PM 17.6 °F 12.3 °F - N/A% 30.39 in 10.0 mi NNW 3.5 mph - N/A   Scattered Clouds
6:56 PM 14.0 °F 8.2 °F - N/A% 30.45 in 10.0 mi West 3.5 mph - N/A   Clear
7:44 PM 12.2 °F - - N/A% 30.42 in 10.0 mi Calm Calm - N/A   Scattered Clouds
7:56 PM 13.1 °F - - N/A% 30.46 in 10.0 mi Calm Calm - N/A   Mostly Cloudy
8:18 PM 12.2 °F - - N/A% 30.43 in 10.0 mi Calm Calm - N/A   Scattered Clouds
8:56 PM 9.1 °F - - N/A% 30.48 in 10.0 mi Calm Calm - N/A   Clear
9:28 PM 10.4 °F - - N/A% 30.45 in 10.0 mi Calm Calm - N/A   Scattered Clouds
9:37 PM 10.4 °F - - N/A% 30.45 in 10.0 mi Calm Calm - N/A   Mostly Cloudy
9:56 PM 12.0 °F - - N/A% 30.50 in 10.0 mi Calm Calm - N/A   Scattered Clouds
10:56 PM 13.1 °F 7.1 °F - N/A% 30.52 in 10.0 mi WNW 3.5 mph - N/A   Partly Cloudy
11:10 PM 10.4 °F 4.0 °F - N/A% 30.48 in 10.0 mi NW 3.5 mph - N/A   Mostly Cloudy
11:33 PM 10.4 °F 2.2 °F - N/A% 30.49 in 10.0 mi WNW 4.6 mph - N/A   Scattered Clouds
11:56 PM 13.1 °F 7.1 °F - N/A% 30.53 in 10.0 mi NW 3.5 mph - N/A   Clear